TimeCDT,TemperatureF,Dew PointF,Humidity,Sea Level PressureIn,VisibilityMPH,Wind Direction,Wind SpeedMPH,Gust SpeedMPH,PrecipitationIn,Events,Conditions,WindDirDegrees,DateUTC
12:53 AM,55.0,37.9,53,29.93,10.0,NW,6.9,-,N/A,,Clear,320,2012-09-17 05:53:00
1:53 AM,55.0,37.9,53,29.96,10.0,NNW,21.9,28.8,N/A,,Clear,340,2012-09-17 06:53:00
2:53 AM,55.0,37.9,53,30.00,10.0,NNW,12.7,-,N/A,,Clear,330,2012-09-17 07:53:00
3:53 AM,53.6,39.2,58,30.06,10.0,North,12.7,-,N/A,,Clear,350,2012-09-17 08:53:00
4:53 AM,54.0,41.0,62,30.02,10.0,North,12.7,-,N/A,,Clear,350,2012-09-17 09:53:00
5:53 AM,52.0,39.9,63,30.03,10.0,North,15.0,25.3,N/A,,Clear,360,2012-09-17 10:53:00
6:53 AM,50.0,41.0,71,30.04,10.0,North,16.1,23.0,N/A,,Partly Cloudy,10,2012-09-17 11:53:00
7:53 AM,48.9,42.1,77,30.09,10.0,North,13.8,-,N/A,,Partly Cloudy,360,2012-09-17 12:53:00
8:53 AM,48.9,42.1,77,30.09,10.0,North,13.8,20.7,N/A,,Clear,10,2012-09-17 13:53:00
9:53 AM,51.1,42.1,71,30.14,10.0,North,16.1,-,N/A,,Clear,10,2012-09-17 14:53:00
10:53 AM,54.0,41.0,62,30.14,10.0,NNE,13.8,20.7,N/A,,Clear,20,2012-09-17 15:53:00
11:53 AM,57.9,39.0,49,30.13,10.0,NNE,11.5,-,N/A,,Clear,30,2012-09-17 16:53:00
12:53 PM,64.9,35.1,33,30.11,10.0,NNE,10.4,-,N/A,,Clear,30,2012-09-17 17:53:00
1:53 PM,66.9,34.0,30,30.10,10.0,NNE,11.5,20.7,N/A,,Clear,20,2012-09-17 18:53:00
2:53 PM,69.1,35.1,29,30.09,10.0,North,13.8,21.9,N/A,,Scattered Clouds,10,2012-09-17 19:53:00
3:53 PM,69.1,36.0,30,30.07,10.0,North,12.7,23.0,N/A,,Partly Cloudy,360,2012-09-17 20:53:00
4:53 PM,69.1,35.1,29,30.05,10.0,North,11.5,-,N/A,,Clear,350,2012-09-17 21:53:00
5:53 PM,69.1,34.0,27,30.06,10.0,NNE,11.5,-,N/A,,Clear,20,2012-09-17 22:53:00
6:53 PM,64.9,34.0,32,30.08,10.0,North,10.4,-,N/A,,Clear,360,2012-09-17 23:53:00
7:53 PM,60.1,35.1,39,30.10,10.0,NNE,6.9,-,N/A,,Clear,30,2012-09-18 00:53:00
8:53 PM,53.1,34.0,48,30.12,10.0,NE,4.6,-,N/A,,Clear,40,2012-09-18 01:53:00
9:53 PM,50.0,35.1,57,30.13,10.0,Calm,Calm,-,N/A,,Clear,0,2012-09-18 02:53:00
10:53 PM,45.0,36.0,71,30.14,10.0,Calm,Calm,-,N/A,,Clear,0,2012-09-18 03:53:00
11:53 PM,42.1,35.1,76,30.14,10.0,Calm,Calm,-,N/A,,Clear,0,2012-09-18 04:53:00